C/2013 V4 ( Catalina )

Japanese version
Home page
Updated on August 28, 2018

---------------------------------------------------------------------

* Profile

Discovery Date November 9, 2013
Magnitude 17.7 mag
Discoverer R. E. Hill (Catalina Sky Survey)

* Pictures

* Orbital Elements

Epoch 2015 Oct. 25.0 TT = JDT 2457320.5
T 2015 Oct. 7.60041 TT                                  MPCW
q   5.1854134            (2000.0)            P               Q
z  -0.0004976      Peri.   40.44923     +0.22786094     -0.60307982
 +/-0.0000002      Node    55.62129     +0.46389271     -0.62303013
e   1.0025805      Incl.   67.85538     +0.85608583     +0.49812467
From 2305 observations 2013 Oct. 23-2018 Mar. 24, mean residual 0".5.

* Finding Charts

* Magnitudes Graph

        m1 = 5.0 + 5 log d + 10.0 log r

---------------------------------------------------------------------

The orbital elements are published on M.P.E.C. 2018-F152.
The charts are made with StellaNavigator Ver.8 (AstroArts).
The magnitudes graphs are made with Comet for Windows.

---------------------------------------------------------------------

Copyright(C) Seiichi Yoshida (comet@aerith.net). All rights reserved.